User: anonymous
Location: Caltech
(34.1382°N, 118.1253°W)
Time: 10:27:45
(UTC-07:00)
Language:

Cosmos 1733 Rocket - Orbit

View from above orbital plane
View from above orbital plane
View from above satellite
View from above satellite

Ground track
Ground track

The orbit data is extracted from the following two-line orbital elements,

1 16612U 86018B   14259.17377744  .00000388  00000-0  44113-4 0    76
2 16612 082.5193 159.1197 0016994 224.9366 285.9604 14.83625866442407
Epoch (UTC): 16 September 2014 04:10:14
Eccentricity: 0.0016994
inclination: 82.5193°
perigee height: 606 km
apogee height: 630 km
right ascension of ascending node: 159.1197°
argument of perigee: 224.9366°
revolutions per day: 14.83625866
mean anomaly at epoch: 285.9604°
orbit number at epoch: 44240

The dashed part of the orbit path shows where the satellite is in the earth's shadow,  

DLR